User: anonymous   Login
Location: Glendale
(37.4556°N, 88.6714°W)
Time: 13:56:44
(UTC+00:00)
Language:

Cosmos 292 Rocket - Orbit

View from above orbital plane
View from above orbital plane
View from above satellite
View from above satellite

Ground track
Ground track

The orbit data is extracted from the following two-line orbital elements,

1  4071U 69070B   20048.51403280 +.00000037 +00000-0 +13169-4 0  9995
2  4071 074.0479 053.3433 0013639 148.9080 211.2897 14.62821883680410
Epoch (UTC): 17 February 2020 12:20:12
Eccentricity: 0.0013639
inclination: 74.0479°
perigee height: 674 km
apogee height: 694 km
right ascension of ascending node: 53.3433°
argument of perigee: 148.9080°
revolutions per day: 14.62821883
mean anomaly at epoch: 211.2897°
orbit number at epoch: 68041

The dashed part of the orbit path shows where the satellite is in the earth's shadow,  

DLR